PST,Max TemperatureF,Mean TemperatureF,Min TemperatureF,Max Dew PointF,MeanDew PointF,Min DewpointF,Max Humidity, Mean Humidity, Min Humidity, Max Sea Level PressureIn, Mean Sea Level PressureIn, Min Sea Level PressureIn, Max VisibilityMiles, Mean VisibilityMiles, Min VisibilityMiles, Max Wind SpeedMPH, Mean Wind SpeedMPH, Max Gust SpeedMPH,PrecipitationIn, CloudCover, Events, WindDirDegrees
2014-1-1,77,61,44,38,27,19,48,30,12,30.11,30.06,30.01,10,9,5,9,2,20,0.00,0,,146
2014-1-2,84,67,50,35,25,18,38,24,9,30.09,30.02,29.96,10,10,7,10,2,15,0.00,0,,262
2014-1-3,76,63,49,47,35,27,60,40,19,30.01,29.94,29.88,10,9,6,8,2,14,0.00,0,,138
2014-1-4,72,60,48,47,37,29,72,46,20,30.00,29.95,29.91,10,9,6,10,2,15,0.00,0,,128
2014-1-5,78,62,46,33,25,18,56,33,10,30.14,30.08,30.00,10,10,9,10,2,14,0.00,0,,116
2014-1-6,80,63,45,19,14,5,34,20,6,30.19,30.12,30.07,10,10,10,12,2,16,0.00,0,,304
2014-1-7,70,58,46,29,21,15,35,25,14,30.12,30.06,30.02,10,10,10,7,2,14,0.00,0,,78
2014-1-8,70,58,46,50,36,26,72,50,27,30.09,30.04,29.99,10,9,6,13,4,20,0.00,0,,144
2014-1-9,71,59,47,50,46,39,93,66,39,30.10,30.04,29.94,10,3,0,15,3,22,0.00,3,Fog,49
2014-1-10,75,61,47,45,41,36,77,52,27,30.10,30.04,29.99,10,9,6,10,3,14,0.00,0,,119
2014-1-11,78,63,47,50,40,32,66,43,19,30.15,30.07,30.01,10,10,8,9,2,14,0.00,0,,148
2014-1-12,72,62,52,41,35,29,66,45,24,30.14,30.06,30.00,10,10,9,23,7,28,0.00,0,,354
2014-1-13,82,64,46,32,19,11,48,27,6,30.30,30.23,30.15,10,10,10,9,2,10,0.00,0,,7
2014-1-14,88,70,52,19,10,-3,28,16,3,30.29,30.22,30.18,10,10,9,23,8,29,0.00,0,,33
2014-1-15,86,70,54,24,17,7,26,17,7,30.21,30.14,30.09,10,10,10,9,2,14,0.00,0,,152
2014-1-16,90,72,53,18,10,-7,24,13,2,30.12,30.06,30.01,10,10,10,13,3,16,0.00,0,,9
2014-1-17,86,69,52,18,11,1,24,14,4,30.11,30.05,30.01,10,10,7,10,3,13,0.00,0,,298
2014-1-18,86,68,50,22,14,2,26,15,4,30.09,30.02,29.96,10,10,10,8,2,9,0.00,0,,249
2014-1-19,83,66,48,29,20,10,33,20,6,30.10,30.05,30.01,10,10,10,9,2,12,0.00,0,,200
2014-1-20,84,66,48,31,20,8,39,23,6,30.15,30.09,30.04,10,10,10,7,2,10,0.00,0,,247
2014-1-21,80,67,53,24,20,15,28,19,9,30.14,30.08,30.03,10,10,10,7,1,12,0.00,0,,323
2014-1-22,81,68,54,52,34,13,80,45,10,30.02,29.93,29.85,10,9,2,10,3,16,0.00,0,,133
2014-1-23,78,63,47,50,40,25,89,52,14,30.07,29.93,29.86,10,8,0,9,2,14,0.00,0,Fog,171
2014-1-24,75,64,53,49,31,17,57,35,12,30.20,30.15,30.07,10,10,10,14,3,16,T,1,,216
2014-1-25,80,69,58,43,34,21,48,31,13,30.19,30.13,30.08,10,10,10,12,3,14,0.00,2,,153
2014-1-26,71,62,53,48,39,31,60,44,28,30.12,30.05,29.99,10,10,10,10,3,13,0.00,3,,181
2014-1-27,72,62,51,49,44,38,72,53,34,30.06,30.02,29.97,10,10,9,10,3,15,0.00,0,,157
2014-1-28,76,63,49,51,44,38,71,52,33,30.10,30.05,30.00,10,9,8,8,3,14,0.00,0,,158
2014-1-29,79,65,51,54,43,38,72,49,25,30.06,29.98,29.91,10,9,4,12,4,16,0.00,0,,121
2014-1-30,63,60,57,54,50,46,86,71,56,29.95,29.89,29.85,10,5,2,10,5,15,T,8,Rain,159
2014-1-31,67,60,53,50,37,22,83,54,24,29.95,29.90,29.85,10,10,10,21,8,28,T,2,Rain,320